This is the latest recevied weather packets stored in our database for station/object KI4FRU. If no packets are shown the sender has not sent any weather packets the latest 10 day(s).
| Time | Temp. | Humidity | Pressure | Rain* | Wind** | Luminosity | Snow |
|---|---|---|---|---|---|---|---|
| 1777982957 | 13.33° C | 93% | 1055.1 hPa | 0 mm | - | 27 W/m² | - |
| 1777982653 | 12.78° C | 94% | 1054.9 hPa | 0 mm | - | 51 W/m² | - |
| 1777982352 | 12.22° C | 94% | 1054.9 hPa | 0 mm | - | 98 W/m² | - |
| 1777982049 | 11.67° C | 95% | 1055 hPa | 0 mm | - | 25 W/m² | - |
| 1777981747 | 11.67° C | 95% | 1054.8 hPa | 0 mm | - | 21 W/m² | - |
| 1777981443 | 11.67° C | 94% | 1054.9 hPa | 0 mm | - | 20 W/m² | - |
| 1777981140 | 11.67° C | 94% | 1054.9 hPa | 0 mm | - | 19 W/m² | - |
| 1777980836 | 11.67° C | 94% | 1054.6 hPa | 0 mm | - | 18 W/m² | - |
| 1777980532 | 11.67° C | 94% | 1054.8 hPa | 0 mm | - | 16 W/m² | - |
| 1777980230 | 11.67° C | 93% | 1054.7 hPa | 0 mm | - | 15 W/m² | - |
| 1777979925 | 11.67° C | 93% | 1054.6 hPa | 0 mm | - | 14 W/m² | - |
| 1777979621 | 11.67° C | 92% | 1054.5 hPa | 0 mm | - | 15 W/m² | - |
| 1777979317 | 11.67° C | 92% | 1054.7 hPa | 0 mm | - | 14 W/m² | - |
| 1777979015 | 11.67° C | 91% | 1054.6 hPa | 0 mm | - | 12 W/m² | - |
| 1777978711 | 11.67° C | 91% | 1054.5 hPa | 0 mm | - | 9 W/m² | - |
| 1777978407 | 12.22° C | 90% | 1054.4 hPa | 0 mm | - | 7 W/m² | - |
| 1777978103 | 12.22° C | 90% | 1054.6 hPa | 0 mm | - | 6 W/m² | - |
| 1777977802 | 12.22° C | 89% | 1054.4 hPa | 0 mm | - | 4 W/m² | - |
| 1777977497 | 12.22° C | 89% | 1054.6 hPa | 0 mm | - | 3 W/m² | - |
| 1777977195 | 12.22° C | 89% | 1054.6 hPa | 0 mm | - | 2 W/m² | - |
| 1777976892 | 12.22° C | 89% | 1054.7 hPa | 0 mm | - | 1 W/m² | - |
| 1777976590 | 12.22° C | 89% | 1054.7 hPa | 0 mm | - | 0 W/m² | - |
| 1777976290 | 12.22° C | 88% | 1054.5 hPa | 0 mm | - | 0 W/m² | - |
| 1777975985 | 12.22° C | 88% | 1054.5 hPa | 0 mm | - | 0 W/m² | - |
| 1777975681 | 12.22° C | 88% | 1054.5 hPa | 0 mm | - | 0 W/m² | - |
* Rain latest hour (hover to see other rain measurements)
** Current wind speed in m/s (hover to see current wind gust speed)